This is the latest recevied weather packets stored in our database for station/object NW5W-12. If no packets are shown the sender has not sent any weather packets the latest 10 day(s).
| Time | Temp. | Humidity | Pressure | Rain* | Wind** | Luminosity | Snow |
|---|---|---|---|---|---|---|---|
| 1778092242 | 9.44° C | 31% | 1019.4 hPa | 3.56 mm | - | - | - |
| 1778091942 | 9.44° C | 34% | 1019.4 hPa | 3.56 mm | - | - | - |
| 1778091643 | 8.89° C | 33% | 1019.4 hPa | 3.56 mm | - | - | - |
| 1778091343 | 8.89° C | 32% | 1019.4 hPa | 3.56 mm | - | - | - |
| 1778091042 | 8.89° C | 32% | 1019.3 hPa | 3.56 mm | - | - | - |
| 1778090742 | 8.89° C | 33% | 1019.3 hPa | 3.56 mm | - | - | - |
| 1778090442 | 8.89° C | 34% | 1019.3 hPa | 3.56 mm | - | - | - |
| 1778090142 | 8.33° C | 33% | 1019.2 hPa | 3.56 mm | - | - | - |
| 1778089843 | 8.33° C | 33% | 1019.1 hPa | 3.56 mm | - | - | - |
| 1778089543 | 8.33° C | 33% | 1019.1 hPa | 3.56 mm | - | - | - |
| 1778089242 | 8.33° C | 36% | 1019 hPa | 3.56 mm | - | - | - |
| 1778088942 | 8.33° C | 38% | 1019.1 hPa | 3.56 mm | - | - | - |
| 1778088642 | 8.33° C | 35% | 1018.9 hPa | 3.56 mm | - | - | - |
| 1778088342 | 8.33° C | 38% | 1019 hPa | 3.56 mm | - | - | - |
| 1778088042 | 8.33° C | 36% | 1018.8 hPa | 3.56 mm | - | - | - |
| 1778087742 | 8.33° C | 37% | 1018.8 hPa | 3.56 mm | - | - | - |
| 1778087442 | 8.33° C | 37% | 1018.7 hPa | 3.56 mm | - | - | - |
| 1778087142 | 7.78° C | 37% | 1018.7 hPa | 3.56 mm | - | - | - |
| 1778086842 | 7.78° C | 36% | 1018.6 hPa | 3.56 mm | - | - | - |
| 1778086543 | 7.78° C | 41% | 1018.5 hPa | 3.56 mm | - | - | - |
| 1778086242 | 7.78° C | 41% | 1018.4 hPa | 3.56 mm | - | - | - |
| 1778085942 | 7.78° C | 43% | 1018.3 hPa | 3.56 mm | - | - | - |
| 1778085642 | 7.22° C | 45% | 1018.3 hPa | 3.56 mm | - | - | - |
| 1778085342 | 7.22° C | 43% | 1018.1 hPa | 3.56 mm | - | - | - |
| 1778085042 | 7.22° C | 43% | 1018.1 hPa | 3.56 mm | - | - | - |
* Rain since midnight (hover to see other rain measurements)
** Current wind speed in m/s (hover to see current wind gust speed)